Regional Weather Roundup
Issued by NWS

Home | Current Version | Previous Version | Text Only | Print | Product List | Glossary On
Versions: 1 2 3 4 5 6 7 8 9 10 11 12 13 14 15 16 17 18 19 20 21 22 23 24 25 26 27 28 29 30 31 32 33 34 35 36 37 38 39 40 41 42 43 44 45 46 47 48 49 50
000
ASUS43 KDTX 310310
RWRMI
MICHIGAN HOURLY REGIONAL WEATHER ROUNDUP
NATIONAL WEATHER SERVICE DETROIT/PONTIAC MI
1100 PM EDT SUN AUG 30 2015

NOTE: "FAIR" INDICATES FEW OR NO CLOUDS BELOW 12,000 FEET WITH NO
SIGNIFICANT WEATHER AND/OR OBSTRUCTION TO VISIBILITY.

MIZ047>049-052>055-059>063-066>070-074>076-081>083-310400-
SOUTHEAST LOWER MICHIGAN

CITY           SKY/WX    TMP DP  RH WIND       PRES   REMARKS
ADRIAN         CLEAR     68  66  93 CALM      30.06R FOG
ALMA           CLEAR     66  65  98 S3        30.04F FOG
ANN ARBOR      FOG       65  64  97 CALM      30.05S VSB 1
BAD AXE        FOG       62  62  99 CALM      30.03S VSB 1/4
CARO           FOG       62  62  99 CALM      30.03S VSB 1/4
DETROIT CITY   PTCLDY    74  68  81 CALM      30.04S
DETROIT        CLEAR     72  69  90 SE3       30.05R
FLINT          CLEAR     67  64  90 SW3       30.04F FOG
GROSSE ILE     CLEAR     72  68  88 CALM      30.03S
HILLSDALE      FOG       66  66 100 CALM      30.07S VSB<1/4
HOWELL         CLEAR     68  67  95 CALM      30.05S FOG

CITY           SKY/WX    TMP DP  RH WIND       PRES   REMARKS
JACKSON        CLEAR     66  65  96 CALM      30.06S FOG
LAMBERTVILLE   CLEAR     70  67  90 CALM      30.05S FOG
LANSING        CLEAR     65  63  93 CALM      30.05S
LAPEER         FOG       64  64 100 CALM      30.04F VSB 1/4
MASON          PTCLDY    65  62  91 CALM      30.06S FOG
MONROE         CLEAR     69  67  95 CALM      30.04R FOG
MT. CLEMENS    MOCLDY    70  67  90 CALM      30.02S
PONTIAC        CLEAR     69  66  90 CALM      30.04F
PORT HOPE        N/A     66  65  96 CALM      30.00F
PORT HURON     FOG       64  64 100 CALM      30.03F VSB 1/2
TRI CITIES     CLEAR     70  66  87 S5        30.03S
MIDLAND        FOG       65  64  97 CALM      30.02S VSB 1/4
TROY           PTCLDY    75  68  79 W3        30.06S
SAGINAW HB     CLEAR     64  63  94 SW3       30.02F FOG
$$
MIZ043>046-050>051-056>058-064>065-071>073-077>080-310400-
SOUTHWEST LOWER MICHIGAN

CITY           SKY/WX    TMP DP  RH WIND       PRES   REMARKS
BATTLE CREEK   CLEAR     67  65  93 S3        30.07R
BENTON HARBOR  FOG       62  61  96 CALM      30.04F VSB 1/4
BIG RAPIDS     FOG       64  63  97 CALM      30.04S VSB 3/4
COLDWATER      FOG       64  64 100 CALM      30.06S VSB 1/2
FREMONT        FOG       60  60 100 CALM      30.04S VSB 3/4
HOLLAND        FOG       63  61  93 CALM      30.05F VSB 1
GRAND RAPIDS   CLEAR     65  64  97 SW5       30.05S FOG
IONIA          FAIR      65  63  93 W5        30.04S
KALAMAZOO      CLEAR     64  62  93 CALM      30.06S FOG
LUDINGTON      CLEAR     64  61  90 CALM      30.03F
MARSHALL       FOG       65  65  97 CALM      30.06S VSB 1/4
MOUNT PLEASANT FOG       65  63  93 CALM      30.02F VSB 1
MUSKEGON       PTCLDY    63  60  90 CALM      30.04F FOG
SOUTH HAVEN    CLEAR     61  60  96 CALM      30.05S FOG
$$
MIZ016>042-310400-
NORTHERN LOWER MICHIGAN

CITY           SKY/WX    TMP DP  RH WIND       PRES   REMARKS
ALPENA         CLEAR     62  60  93 CALM      29.99S
BEAVER ISLAND  CLEAR     65  63  92 SW13      29.97S
BELLAIRE       CLEAR     66  64  93 S3        29.99F
CADILLAC       CLEAR     63  62  96 SW6       30.04R FOG
CHARLEVOIX     CLEAR     66  62  85 SW8       30.00S
FRANKFORT      CLEAR     66  64  91 S5        30.01S
GAYLORD        PTCLDY    64  63  96 SW7       30.01S
GRAYLING       PTCLDY    63  62  96 CALM      30.03S
HARBOR SPRINGS PTCLDY    65  64  94 CALM      29.98S
HOUGHTON LAKE  CLEAR     67  65  93 SW6       30.03S
MANISTEE       CLEAR     61  57  88 CALM      30.03S
OSCODA         CLEAR     65  64  97 SW5       29.99S FOG
PELLSTON       CLEAR     64  61  90 SW5       29.97F
ROGERS CITY    FAIR      62  60  93 CALM      29.99S
TRAVERSE CITY  CLEAR     67  60  78 CALM      29.99S
$$
MIZ007>008-015-310400-
EASTERN UPPER MICHIGAN

CITY           SKY/WX    TMP DP  RH WIND       PRES   REMARKS
KINROSS        CLEAR     63  63 100 SW3       29.96S
MACKINAC ISLAN CLEAR     65  63  93 SW8       29.96F
NEWBERRY       MOCLDY    63  62  98 SW12      29.95R FOG
S. S. MARIE    CLEAR     63  60  90 SE3       29.95S
MUNISING         N/A     70  63  78 SW9       29.91S
$$
MIZ004>006-011>014-085-310400-
CENTRAL UPPER MICHIGAN

CITY           SKY/WX    TMP DP  RH WIND       PRES   REMARKS
MANISTIQUE     CLEAR     63  61  95 S9        29.95S FOG
ESCANABA       CLEAR     66  63  88 S6        29.94S
MENOMINEE      CLEAR     66  61  82 SW8       29.96S
SAWYER-GWINN   CLEAR     67  63  86 SW8       29.94S
$$
MIZ001>003-009>011-084-310400-
WESTERN UPPER MICHIGAN

CITY           SKY/WX    TMP DP  RH WIND       PRES   REMARKS
IRON MOUNTAIN  CLEAR     66  62  87 S5        29.95R
HOUGHTON       CLEAR     65  60  84 W5        29.89R
IRONWOOD       CLEAR     70  64  83 SW9       29.89S
$$

ABBREVIATIONS USED IN REMARKS
   TC - TEMPERATURE IN CELSIUS
  WCI - WIND CHILL INDEX
   HX - HEAT INDEX
  VSB - VISIBILITY



USA.gov is the U.S. government's official web portal to all federal, state and local government web resources and services.